Location: Ellingshausen
(50.5460°N, 10.4723°E)
Time: 13:34:31
(UTC+00:00)

Cosmos 676 Rocket - Pass Details

Date: 18 April 2026
Orbit: 750 x 779 km, 74.0° (Epoch: 19 May)

Event Time Altitude Azimuth Distance (km) Brightness Sun altitude
Rises 20:20:32 0° 341° (NNW) 3,271 8.4 -17.4°
Reaches altitude 10° 20:25:02 10° 17° (NNE) 2,333 6.9 -17.9°
Maximum altitude 20:26:31 11° 33° (NNE) 2,255 6.6 -18.1°
Drops below altitude 10° 20:28:00 10° 50° (NE) 2,326 6.5 -18.2°
Enters shadow 20:30:24 - 72° (ENE) 2,720 6.6 -18.5°
